When you browse on this site, cookies collect data to enhance your experience and personalize the content and advertising you see.
Visit our Privacy Policy to learn more. By continuing to use the site, you agree to this use of cookies and data.
  • In Czech Republic
  • List of Countries
  • For 7 days
  • Water Temperature
  • Satellite Maps
  • Weather Map
  • Weather Widgets
  • user-avatar
    Login

    Hourly Weather Guadalajara

    Today, 25 March, Monday

    Time Temperature Precipitation Wind Pressure Humidity
    00:00 +19°C° 0 mm 1 mps 634 mmHg 41%
    01:00 +18°C° 0 mm 1 mps 633 mmHg 45%
    02:00 +16°C° 0 mm 1 mps 633 mmHg 50%
    03:00 +14°C° 0 mm 0 mps 633 mmHg 52%
    04:00 +14°C° 0 mm 0 mps 632 mmHg 55%
    05:00 +13°C° 0 mm 0 mps 632 mmHg 57%
    06:00 +16°C° 0 mm 0 mps 633 mmHg 49%
    07:00 +19°C° 0 mm 0 mps 635 mmHg 41%
    08:00 +22°C° 0 mm 0 mps 636 mmHg 33%
    09:00 +26°C° 0 mm 0 mps 637 mmHg 26%
    10:00 +31°C° 0 mm 0 mps 638 mmHg 19%
    11:00 +35°C° 0 mm 0 mps 639 mmHg 12%
    12:00 +36°C° 0 mm 0 mps 639 mmHg 11%
    13:00 +37°C° 0 mm 0 mps 638 mmHg 10%
    14:00 +37°C° 0 mm 0 mps 638 mmHg 9%
    15:00 +35°C° 0 mm 0 mps 637 mmHg 9%
    16:00 +35°C° 0 mm 1 mps 636 mmHg 10%
    17:00 +33°C° 0 mm 1 mps 635 mmHg 10%
    18:00 +31°C° 0 mm 1 mps 635 mmHg 13%
    19:00 +29°C° 0 mm 2 mps 635 mmHg 15%
    20:00 +26°C° 0 mm 2 mps 635 mmHg 18%
    21:00 +24°C° 0 mm 1 mps 634 mmHg 23%
    22:00 +22°C° 0 mm 1 mps 634 mmHg 28%
    23:00 +19°C° 0 mm 0 mps 634 mmHg 33%

    Tomorrow, 26 March, Tuesday

    Time Temperature Precipitation Wind Pressure Humidity
    00:00 +18°C° 0 mm 0 mps 634 mmHg 35%
    01:00 +17°C° 0 mm 0 mps 633 mmHg 38%
    02:00 +16°C° 0 mm 0 mps 633 mmHg 40%
    03:00 +16°C° 0 mm 0 mps 632 mmHg 41%
    04:00 +16°C° 0 mm 0 mps 632 mmHg 41%
    05:00 +15°C° 0 mm 0 mps 632 mmHg 42%
    06:00 +20°C° 0 mm 1 mps 633 mmHg 38%
    07:00 +22°C° 0 mm 1 mps 634 mmHg 34%
    08:00 +24°C° 0 mm 1 mps 635 mmHg 30%
    09:00 +27°C° 0 mm 1 mps 636 mmHg 26%
    10:00 +31°C° 0 mm 1 mps 637 mmHg 22%
    11:00 +34°C° 0 mm 1 mps 638 mmHg 17%
    12:00 +35°C° 0 mm 1 mps 637 mmHg 15%
    13:00 +37°C° 0 mm 1 mps 637 mmHg 13%
    14:00 +39°C° 0 mm 1 mps 637 mmHg 11%
    15:00 +35°C° 0 mm 0 mps 636 mmHg 12%
    16:00 +33°C° 0 mm 0 mps 635 mmHg 13%
    17:00 +31°C° 0 mm 0 mps 634 mmHg 14%
    18:00 +31°C° 0 mm 1 mps 635 mmHg 17%
    19:00 +30°C° 0 mm 2 mps 635 mmHg 19%
    20:00 +28°C° 0 mm 3 mps 636 mmHg 21%
    21:00 +26°C° 0 mm 2 mps 636 mmHg 25%
    22:00 +24°C° 0 mm 2 mps 636 mmHg 30%
    23:00 +23°C° 0 mm 1 mps 636 mmHg 34%

    Day after tomorrow, 27 March, Wednesday

    Time Temperature Precipitation Wind Pressure Humidity
    00:00 +22°C° 0 mm 1 mps 635 mmHg 37%
    01:00 +21°C° 0 mm 1 mps 635 mmHg 41%
    02:00 +19°C° 0 mm 1 mps 634 mmHg 44%
    03:00 +19°C° 0 mm 1 mps 634 mmHg 48%
    04:00 +18°C° 0 mm 1 mps 634 mmHg 51%
    05:00 +18°C° 0 mm 1 mps 634 mmHg 54%
    06:00 +18°C° 0 mm 2 mps 635 mmHg 50%
    07:00 +20°C° 0 mm 2 mps 636 mmHg 46%
    08:00 +21°C° 0 mm 2 mps 636 mmHg 42%
    09:00 +26°C° 0 mm 2 mps 637 mmHg 35%
    10:00 +29°C° 0 mm 1 mps 638 mmHg 28%
    11:00 +32°C° 0 mm 1 mps 639 mmHg 21%
    12:00 +34°C° 0 mm 1 mps 638 mmHg 18%
    13:00 +36°C° 0 mm 1 mps 638 mmHg 15%
    14:00 +37°C° 0 mm 0 mps 638 mmHg 12%
    15:00 +35°C° 0 mm 0 mps 637 mmHg 13%
    16:00 +33°C° 0 mm 0 mps 636 mmHg 13%
    17:00 +31°C° 0 mm 0 mps 635 mmHg 14%
    18:00 +31°C° 0 mm 1 mps 635 mmHg 17%
    19:00 +29°C° 0 mm 2 mps 636 mmHg 20%
    20:00 +27°C° 0 mm 3 mps 636 mmHg 22%
    21:00 +25°C° 0 mm 2 mps 636 mmHg 28%
    22:00 +24°C° 0 mm 2 mps 636 mmHg 34%
    23:00 +22°C° 0 mm 1 mps 636 mmHg 39%

    28 March, Thursday

    Time Temperature Precipitation Wind Pressure Humidity
    00:00 +21°C° 0 mm 1 mps 635 mmHg 43%
    01:00 +20°C° 0 mm 1 mps 634 mmHg 48%
    02:00 +17°C° 0 mm 0 mps 634 mmHg 52%
    03:00 +16°C° 0 mm 0 mps 634 mmHg 54%
    04:00 +16°C° 0 mm 0 mps 634 mmHg 55%
    05:00 +15°C° 0 mm 0 mps 633 mmHg 57%
    06:00 +18°C° 0 mm 0 mps 635 mmHg 50%
    07:00 +22°C° 0 mm 1 mps 636 mmHg 43%
    08:00 +25°C° 0 mm 1 mps 637 mmHg 35%
    09:00 +28°C° 0 mm 1 mps 638 mmHg 29%
    10:00 +32°C° 0 mm 1 mps 639 mmHg 22%
    11:00 +35°C° 0 mm 1 mps 639 mmHg 15%
    12:00 +35°C° 0 mm 1 mps 638 mmHg 15%
    13:00 +36°C° 0 mm 2 mps 637 mmHg 14%
    14:00 +36°C° 0 mm 2 mps 636 mmHg 13%
    15:00 +35°C° 0 mm 3 mps 636 mmHg 14%
    16:00 +34°C° 0 mm 3 mps 636 mmHg 15%
    17:00 +33°C° 0 mm 4 mps 635 mmHg 16%
    18:00 +29°C° 0 mm 3 mps 635 mmHg 17%
    19:00 +27°C° 0 mm 3 mps 635 mmHg 18%
    20:00 +25°C° 0 mm 3 mps 635 mmHg 19%
    21:00 +23°C° 0 mm 2 mps 635 mmHg 23%
    22:00 +21°C° 0 mm 2 mps 635 mmHg 26%
    23:00 +20°C° 0 mm 1 mps 634 mmHg 30%

    29 March, Friday

    Time Temperature Precipitation Wind Pressure Humidity
    00:00 +19°C° 0 mm 1 mps 634 mmHg 32%
    01:00 +18°C° 0 mm 1 mps 633 mmHg 35%
    02:00 +18°C° 0 mm 1 mps 632 mmHg 38%
    03:00 +16°C° 0 mm 1 mps 632 mmHg 40%
    04:00 +14°C° 0 mm 0 mps 632 mmHg 41%
    05:00 +14°C° 0 mm 0 mps 632 mmHg 43%
    06:00 +17°C° 0 mm 0 mps 633 mmHg 36%
    07:00 +20°C° 0 mm 0 mps 635 mmHg 29%
    08:00 +23°C° 0 mm 0 mps 636 mmHg 22%
    09:00 +27°C° 0 mm 1 mps 636 mmHg 18%
    10:00 +30°C° 0 mm 2 mps 637 mmHg 14%
    11:00 +32°C° 0 mm 2 mps 637 mmHg 10%
    12:00 +34°C° 0 mm 3 mps 636 mmHg 9%
    13:00 +34°C° 0 mm 3 mps 636 mmHg 8%
    14:00 +35°C° 0 mm 4 mps 635 mmHg 8%
    15:00 +34°C° 0 mm 4 mps 635 mmHg 8%
    16:00 +33°C° 0 mm 4 mps 634 mmHg 8%
    17:00 +33°C° 0 mm 4 mps 634 mmHg 8%
    18:00 +29°C° 0 mm 4 mps 634 mmHg 11%
    19:00 +26°C° 0 mm 3 mps 634 mmHg 13%
    20:00 +23°C° 0 mm 2 mps 634 mmHg 16%
    21:00 +21°C° 0 mm 2 mps 633 mmHg 18%
    22:00 +21°C° 0 mm 1 mps 633 mmHg 21%
    23:00 +19°C° 0 mm 1 mps 633 mmHg 23%

    30 March, Saturday

    Time Temperature Precipitation Wind Pressure Humidity
    00:00 +18°C° 0 mm 1 mps 632 mmHg 26%
    01:00 +16°C° 0 mm 1 mps 631 mmHg 28%
    02:00 +16°C° 0 mm 1 mps 631 mmHg 31%
    03:00 +15°C° 0 mm 1 mps 631 mmHg 34%
    04:00 +13°C° 0 mm 0 mps 630 mmHg 36%
    05:00 +12°C° 0 mm 0 mps 630 mmHg 38%
    06:00 +15°C° 0 mm 0 mps 632 mmHg 33%
    07:00 +18°C° 0 mm 0 mps 633 mmHg 28%
    08:00 +21°C° 0 mm 0 mps 634 mmHg 22%
    09:00 +26°C° 0 mm 1 mps 635 mmHg 17%
    10:00 +29°C° 0 mm 1 mps 635 mmHg 13%
    11:00 +32°C° 0 mm 2 mps 636 mmHg 8%
    12:00 +34°C° 0 mm 2 mps 635 mmHg 7%
    13:00 +35°C° 0 mm 3 mps 635 mmHg 6%
    14:00 +35°C° 0 mm 4 mps 634 mmHg 5%
    15:00 +35°C° 0 mm 4 mps 634 mmHg 5%
    16:00 +34°C° 0 mm 4 mps 634 mmHg 5%
    17:00 +33°C° 0 mm 4 mps 633 mmHg 5%
    18:00 +29°C° 0 mm 3 mps 633 mmHg 7%
    19:00 +26°C° 0 mm 3 mps 633 mmHg 10%
    20:00 +23°C° 0 mm 2 mps 633 mmHg 12%
    21:00 +22°C° 0 mm 1 mps 633 mmHg 15%
    22:00 +20°C° 0 mm 1 mps 632 mmHg 19%
    23:00 +19°C° 0 mm 1 mps 632 mmHg 22%
    Show more